EW8288 Weather Reports


time (UTC)temp
F
wind
direction
speed
knots
gust
knots
rain 1hr
in
rain 24hr
in
rain mn
in
humidity
%
barometer
mb
20260503021226 41 46 0.0 0.0 0.00 0.00 0.00 84 1017.6
20260503020225 42 46 0.0 0.0 0.00 0.00 0.00 84 1017.6
20260503015438 42 46 0.0 0.0 0.00 0.00 0.00 83 1017.6
20260503014224 42 46 0.0 0.0 0.00 0.00 0.00 83 1017.6
20260503013225 42 46 0.0 0.0 0.00 0.00 0.00 82 1017.6
20260503012441 43 46 0.0 0.0 0.00 0.00 0.00 82 1017.6
20260503011226 43 46 0.0 0.0 0.00 0.00 0.00 82 1017.9
20260503010225 43 46 0.0 0.0 0.00 0.00 0.00 82 1017.9
20260503005224 43 46 0.0 0.0 0.00 0.00 0.00 81 1017.9
20260503004225 43 46 0.0 0.0 0.00 0.00 0.00 80 1017.9
20260503003227 44 46 0.0 0.0 0.00 0.00 0.00 80 1017.9
20260503002224 44 46 0.0 0.0 0.00 0.00 0.00 80 1017.9
20260503001224 44 46 0.0 0.0 0.00 0.00 0.00 79 1017.9
20260503000223 44 46 0.0 0.0 0.00 0.00 0.00 79 1018.3
20260502235223 45 46 0.0 0.0 0.00 0.00 0.00 79 1018.3
20260502234226 45 46 0.0 0.0 0.00 0.00 0.00 79 1018.3
20260502233226 45 46 0.0 0.0 0.00 0.00 0.00 78 1018.3
20260502232225 45 46 0.0 0.0 0.00 0.00 0.00 78 1018.3
20260502231226 45 46 0.0 0.0 0.00 0.00 0.00 76 1018.6
20260502230234 46 46 0.0 0.0 0.00 0.00 0.00 77 1018.3
20260502225226 46 46 0.0 0.0 0.00 0.00 0.00 76 1018.6
20260502224439 46 46 0.0 0.0 0.00 0.00 0.00 75 1018.6
20260502223226 46 46 0.0 0.0 0.00 0.00 0.00 74 1018.6
20260502222227 47 46 0.0 0.0 0.00 0.00 0.00 74 1018.6
20260502221226 47 46 0.0 0.0 0.00 0.00 0.00 73 1018.6
20260502220224 47 46 0.0 0.0 0.00 0.00 0.00 71 1018.6
20260502215227 48 46 0.0 0.0 0.00 0.00 0.00 70 1018.6
20260502214441 48 46 0.0 0.0 0.00 0.00 0.00 68 1018.6
20260502213440 49 46 0.0 0.0 0.00 0.00 0.00 66 1019.0
20260502212228 50 46 0.0 0.0 0.00 0.00 0.00 65 1018.6
20260502211439 50 46 0.0 0.0 0.00 0.00 0.00 64 1019.0
20260502210226 50 46 0.0 0.0 0.00 0.00 0.00 64 1019.0
20260502205224 50 46 0.0 0.0 0.00 0.00 0.00 65 1019.0
20260502204227 50 46 0.0 0.0 0.00 0.00 0.00 64 1019.0
20260502203224 51 46 0.0 0.0 0.00 0.00 0.00 63 1019.0
20260502202226 51 46 0.0 0.0 0.00 0.00 0.00 61 1019.0
20260502201226 52 46 0.0 0.0 0.00 0.00 0.00 61 1019.3
20260502200227 52 46 0.0 0.0 0.00 0.00 0.00 60 1019.3
20260502195226 52 46 0.0 0.0 0.00 0.00 0.00 60 1019.3
20260502194225 53 46 0.0 0.0 0.00 0.00 0.00 59 1019.3
20260502193226 54 46 0.0 0.0 0.00 0.00 0.00 58 1019.3
20260502192441 54 46 0.0 0.0 0.00 0.00 0.00 58 1019.3
20260502191227 55 46 0.0 0.0 0.00 0.00 0.00 57 1019.3
20260502190225 56 46 0.0 0.0 0.00 0.00 0.00 56 1019.3
20260502185226 56 46 0.0 0.0 0.00 0.00 0.00 56 1019.3
20260502184439 57 46 0.0 0.0 0.00 0.00 0.00 55 1019.0
20260502183226 58 46 0.0 0.0 0.00 0.00 0.00 53 1019.0
20260502182225 60 46 0.0 0.0 0.00 0.00 0.00 51 1019.0
20260502181225 62 46 0.0 0.0 0.00 0.00 0.00 49 1019.0
20260502180440 64 46 0.0 0.0 0.00 0.00 0.00 45 1019.0
20260502170225 72 46 0.0 0.0 0.00 0.00 0.00 28 1019.0
20260502164227 73 46 0.0 0.0 0.00 0.00 0.00 28 1019.3
20260502163227 73 46 0.0 0.0 0.00 0.00 0.00 27 1019.3
20260502162226 74 46 0.0 0.9 0.00 0.00 0.00 27 1019.3
20260502161225 74 46 0.0 0.0 0.00 0.00 0.00 26 1019.6
20260502160226 75 46 0.0 0.0 0.00 0.00 0.00 25 1019.6
20260502152225 75 46 0.0 0.0 0.00 0.00 0.00 26 1020.0
20260502151226 75 19 0.0 0.9 0.00 0.00 0.00 26 1020.3
20260502150225 75 19 0.0 0.9 0.00 0.00 0.00 25 1020.3
20260502130441 75 190 0.0 0.9 0.00 0.00 0.00 27 1021.7
20260502123227 74 24 0.0 1.7 0.00 0.00 0.00 28 1022.0
20260502122226 74 25 0.0 0.9 0.00 0.00 0.00 30 1022.0
20260502121226 74 23 0.0 3.5 0.00 0.00 0.00 28 1022.4
20260502120227 73 24 0.0 0.0 0.00 0.00 0.00 30 1022.4
20260502115226 73 24 0.0 0.9 0.00 0.00 0.00 29 1022.7
20260502114228 73 24 0.0 0.9 0.00 0.00 0.00 29 1022.7
20260502113224 72 25 0.0 0.0 0.00 0.00 0.00 29 1022.7
20260502112226 72 25 0.0 0.9 0.00 0.00 0.00 30 1023.0
20260502111225 72 13 0.0 0.0 0.00 0.00 0.00 31 1023.0
20260502110224 71 41 0.0 0.9 0.00 0.00 0.00 33 1023.4
20260502105225 71 41 0.0 0.9 0.00 0.00 0.00 33 1023.4
20260502104224 71 28 0.0 0.9 0.00 0.00 0.00 34 1023.4
20260502103441 70 26 0.0 2.6 0.00 0.00 0.00 32 1023.4
20260502102224 70 27 0.0 0.9 0.00 0.00 0.00 34 1023.7
20260502101226 70 27 0.0 0.9 0.00 0.00 0.00 33 1023.7
20260502100225 70 26 0.0 0.0 0.00 0.00 0.00 36 1023.7
20260502091225 67 27 0.0 2.6 0.00 0.00 0.00 41 1024.4
20260502090227 66 27 0.0 0.0 0.00 0.00 0.00 43 1024.4
20260502071225 58 28 0.0 0.0 0.00 0.00 0.00 58 1025.1
20260502070226 58 28 0.0 0.0 0.00 0.00 0.00 59 1025.4
20260502065225 57 28 0.0 0.0 0.00 0.00 0.00 58 1025.4
20260502064227 56 28 0.0 0.0 0.00 0.00 0.00 63 1025.4
20260502063223 56 28 0.0 0.0 0.00 0.00 0.00 63 1025.4
20260502062225 55 28 0.0 0.0 0.00 0.00 0.00 64 1025.1
20260502061440 54 28 0.0 0.0 0.00 0.00 0.00 66 1025.4
20260502060441 53 28 0.0 0.0 0.00 0.00 0.00 71 1025.4
20260502055225 52 28 0.0 0.0 0.00 0.00 0.00 74 1025.4
20260502054226 50 28 0.0 0.0 0.00 0.00 0.00 77 1025.4
20260502053225 49 28 0.0 0.0 0.00 0.00 0.00 79 1025.4
20260502052441 48 28 0.0 0.0 0.00 0.00 0.00 82 1025.4
20260502051225 46 28 0.0 0.0 0.00 0.00 0.00 85 1025.4
20260502050227 44 28 0.0 0.0 0.00 0.00 0.00 87 1025.1
20260502045226 43 28 0.0 0.0 0.00 0.00 0.00 88 1025.1
20260502044227 42 28 0.0 0.0 0.00 0.00 0.00 89 1025.1
20260502043228 41 28 0.0 0.0 0.00 0.00 0.00 89 1025.1
20260502042227 40 28 0.0 0.0 0.00 0.00 0.00 88 1025.1
20260502041225 40 28 0.0 0.0 0.00 0.00 0.00 88 1025.1
20260502040224 40 28 0.0 0.0 0.00 0.00 0.00 88 1025.1
20260502035227 40 28 0.0 0.0 0.00 0.00 0.00 88 1025.1
20260502034225 40 28 0.0 0.0 0.00 0.00 0.00 88 1025.1
20260502033226 40 28 0.0 0.0 0.00 0.00 0.00 87 1025.1
20260502032225 40 28 0.0 0.0 0.00 0.00 0.00 87 1025.1
20260502031227 40 28 0.0 0.0 0.00 0.00 0.00 87 1025.1
20260502030439 40 28 0.0 0.0 0.00 0.00 0.00 87 1025.1
20260502025226 41 28 0.0 0.0 0.00 0.00 0.00 87 1025.1
20260502024227 41 28 0.0 0.0 0.00 0.00 0.00 86 1025.1
20260502023224 41 28 0.0 0.0 0.00 0.00 0.00 86 1025.1
20260502022227 41 28 0.0 0.0 0.00 0.00 0.00 86 1025.1